Regional Weather Roundup
Issued by NWS

Home | Current Version | Previous Version | Graphics & Text | Print | Product List | Glossary On
Versions: 1 2 3 4 5 6 7 8 9 10 11 12 13 14 15 16 17 18 19 20 21 22 23 24 25 26 27 28 29 30 31 32 33 34 35 36 37 38 39 40 41 42 43 44 45 46 47 48 49 50
000
ASUS43 KOAX 190202
RWRNE

WEATHER ROUNDUP FOR NEBRASKA
NATIONAL WEATHER SERVICE OMAHA NE
900 PM CDT FRI APR 18 2014

NOTES: SATELLITE DATA IS BEING USED TO AUGMENT CLOUD COVER ABOVE
       12000 FEET.
       "FAIR" INDICATES FEW OR NO CLOUDS BELOW 12,000 FEET WITH NO
       SIGNIFICANT WEATHER AND/OR OBSTRUCTIONS TO VISIBILITY.

  * THESE STATIONS DO NOT REPORT WEATHER SUCH AS RAIN...SNOW OR FOG.

NEZ001>004-019>022-054>056-190300-
NEBRASKA PANHANDLE

CITY           SKY/WX    TMP DP  RH WIND       PRES   REMARKS
SCOTTSBLUFF    CLOUDY    71  30  21 S12       29.75R
ALLIANCE       MOCLDY    67  34  29 S21       29.75S
CHADRON        CLOUDY    71  38  29 W14G22    29.68R
KIMBALL        CLOUDY    61  28  29 S12       29.83S
SIDNEY         CLOUDY    64  33  31 S15       29.83F
$$

NEZ057>060-069>072-079>082-190300-
SOUTHWEST NEBRASKA

CITY           SKY/WX    TMP DP  RH WIND       PRES   REMARKS
NORTH PLATTE   PTCLDY    64  43  46 SE14      29.90R
IMPERIAL       PTCLDY    65  43  44 MISG      29.88R
LEXINGTON      PTCLDY    63  44  50 S15       29.95R
MCCOOK         PTCLDY    64  43  46 S20G25    29.92S
OGALLALA       MOCLDY    67  40  36 S20       29.84S
$$

NEZ005>010-023>029-035>040-094-190300-
NORTH CENTRAL NEBRASKA

CITY           SKY/WX    TMP DP  RH WIND       PRES   REMARKS
VALENTINE      CLOUDY    67  41  38 S25G35    29.75R
AINSWORTH      CLOUDY    65  41  41 S28G35    29.79F
BROKEN BOW     MOCLDY    62  43  49 S20       29.92R
O`NEILL        MOCLDY    65  38  37 S22G30    29.88S
ORD            PTCLDY    63  41  44 S14       29.92R
THEDFORD       CLOUDY    67  41  39 S21G30    29.84S
$$

NEZ041-046>049-061>064-073>077-083>087-190300-
SOUTH CENTRAL NEBRASKA

CITY           SKY/WX    TMP DP  RH WIND       PRES   REMARKS
GRAND ISLAND   PTCLDY    63  41  44 S18       30.00R
AURORA         MOCLDY    63  42  46 S16G22    30.01R
HASTINGS       PTCLDY    63  40  42 S14       30.00R
HEBRON         MOCLDY    62  41  45 S8        30.05R
HOLDREGE       PTCLDY    61  42  49 S14       29.98R
KEARNEY *      PTCLDY    61  43  51 S21       29.99R
YORK           CLOUDY    63  41  45 S14       30.03R
$$

NEZ011>018-030>034-042>045-190300-
NORTHEAST NEBRASKA

CITY           SKY/WX    TMP DP  RH WIND       PRES   REMARKS
NORFOLK        CLOUDY    61  40  45 S21       29.98R
ALBION         CLOUDY    61  40  45 S16G22    29.97S
BLAIR          MOCLDY    62  38  41 S13G20    30.08R
COLUMBUS *     CLOUDY    61  39  44 SE15      30.03R
FREMONT        CLOUDY    62  38  41 SE12      30.06R
TEKAMAH        CLOUDY    61  38  42 S15       30.05S
$$

NEZ050>053-065>068-078-088>093-190300-
SOUTHEAST NEBRASKA

CITY           SKY/WX    TMP DP  RH WIND       PRES   REMARKS
LINCOLN        CLOUDY    63  39  41 SE15      30.07R
OMAHA EPPLEY   CLOUDY    63  39  41 S14       30.08R
BEATRICE       CLOUDY    63  39  40 SE9       30.07R
FALLS CITY     PTCLDY    59  40  49 S9        30.12
NEBRASKA CITY  PTCLDY    58  40  49 S10       30.11S
$$

NEZ044-045-051>053-067-190300-
OMAHA AREA

CITY           SKY/WX    TMP DP  RH WIND       PRES   REMARKS
OMAHA EPPLEY   CLOUDY    63  39  41 S14       30.08R
BLAIR          MOCLDY    62  38  41 S13G20    30.08R
FREMONT        CLOUDY    62  38  41 SE12      30.06R
OFFUTT AFB     MOCLDY    60  40  48 SE12      30.09R
WAHOO          FAIR      60  37  41 SE16      30.06R
$$



USA.gov is the U.S. government's official web portal to all federal, state and local government web resources and services.